| time (UTC) | temp F | wind direction | speed knots | gust knots | rain 1hr in | rain 24hr in | rain mn in | humidity % | barometer mb |
| 20260510030746 | 60 | 88 | 0.0 | 0.0 | 0.00 | 0.00 | 0.00 | 57 | 1024.0 |
| 20260510025745 | 61 | 88 | 0.0 | 2.6 | 0.00 | 0.00 | 0.00 | 55 | 1024.1 |
| 20260510024744 | 62 | 80 | 1.7 | 2.6 | 0.00 | 0.00 | 0.00 | 51 | 1024.1 |
| 20260510023609 | 63 | 87 | 0.9 | 2.6 | 0.00 | 0.00 | 0.00 | 51 | 1023.7 |
| 20260510022537 | 63 | 83 | 0.9 | 2.6 | 0.00 | 0.00 | 0.00 | 49 | 1023.7 |
| 20260510021504 | 63 | 53 | 0.9 | 3.5 | 0.00 | 0.00 | 0.00 | 48 | 1023.7 |
| 20260510020504 | 64 | 81 | 0.9 | 3.5 | 0.00 | 0.00 | 0.00 | 48 | 1023.5 |
| 20260510015503 | 64 | 41 | 0.9 | 2.6 | 0.00 | 0.00 | 0.00 | 47 | 1023.4 |
| 20260510014501 | 64 | 86 | 1.7 | 6.1 | 0.00 | 0.00 | 0.00 | 46 | 1023.3 |
| 20260510013427 | 65 | 60 | 0.9 | 6.1 | 0.00 | 0.00 | 0.00 | 46 | 1023.4 |
| 20260510012426 | 65 | 26 | 1.7 | 3.5 | 0.00 | 0.00 | 0.00 | 46 | 1023.5 |
| 20260510011425 | 66 | 32 | 1.7 | 3.5 | 0.00 | 0.00 | 0.00 | 45 | 1023.6 |
| 20260510010423 | 66 | 11 | 1.7 | 3.5 | 0.00 | 0.00 | 0.00 | 44 | 1024.0 |
| 20260510005422 | 67 | 66 | 1.7 | 2.6 | 0.00 | 0.00 | 0.00 | 44 | 1023.8 |
| 20260510004420 | 67 | 32 | 0.9 | 2.6 | 0.00 | 0.00 | 0.00 | 43 | 1023.8 |
| 20260510003419 | 67 | 38 | 1.7 | 2.6 | 0.00 | 0.00 | 0.00 | 43 | 1023.9 |
| 20260510002418 | 68 | 67 | 0.9 | 3.5 | 0.00 | 0.00 | 0.00 | 41 | 1023.9 |
| 20260510001416 | 67 | 29 | 0.9 | 3.5 | 0.00 | 0.00 | 0.00 | 42 | 1023.8 |
| 20260510000414 | 67 | 30 | 0.9 | 3.5 | 0.00 | 0.00 | 0.00 | 43 | 1023.7 |
| 20260509235413 | 67 | 20 | 0.9 | 3.5 | 0.00 | 0.00 | 0.00 | 43 | 1023.7 |
| 20260509234310 | 67 | 17 | 0.9 | 2.6 | 0.00 | 0.00 | 0.00 | 46 | 1023.8 |
| 20260509233309 | 66 | 34 | 0.9 | 2.6 | 0.00 | 0.00 | 0.00 | 45 | 1023.8 |
| 20260509232308 | 66 | 29 | 1.7 | 2.6 | 0.00 | 0.00 | 0.00 | 43 | 1023.8 |
| 20260509231307 | 66 | 28 | 1.7 | 4.3 | 0.00 | 0.00 | 0.00 | 45 | 1024.2 |
| 20260509230306 | 66 | 25 | 1.7 | 3.5 | 0.00 | 0.00 | 0.00 | 43 | 1024.2 |
| 20260509225202 | 66 | 253 | 0.9 | 4.3 | 0.00 | 0.00 | 0.00 | 41 | 1024.2 |
| 20260509224201 | 67 | 296 | 1.7 | 5.2 | 0.00 | 0.00 | 0.00 | 40 | 1024.3 |
| 20260509223200 | 66 | 333 | 0.9 | 6.1 | 0.00 | 0.00 | 0.00 | 43 | 1024.3 |
| 20260509222159 | 67 | 15 | 0.9 | 4.3 | 0.00 | 0.00 | 0.00 | 43 | 1024.3 |
| 20260509221158 | 67 | 32 | 0.9 | 2.6 | 0.00 | 0.00 | 0.00 | 42 | 1024.6 |
| 20260509220157 | 67 | 20 | 0.9 | 2.6 | 0.00 | 0.00 | 0.00 | 41 | 1024.6 |
| 20260509215156 | 67 | 15 | 0.9 | 3.5 | 0.00 | 0.00 | 0.00 | 43 | 1024.6 |
| 20260509214155 | 67 | 5 | 1.7 | 3.5 | 0.00 | 0.00 | 0.00 | 43 | 1025.1 |
| 20260509213154 | 67 | 67 | 1.7 | 4.3 | 0.00 | 0.00 | 0.00 | 40 | 1025.1 |
| 20260509212122 | 68 | 11 | 0.9 | 7.0 | 0.00 | 0.00 | 0.00 | 39 | 1025.2 |
| 20260509211049 | 68 | 236 | 2.6 | 7.0 | 0.00 | 0.00 | 0.00 | 34 | 1025.5 |
| 20260509210017 | 67 | 157 | 1.7 | 7.0 | 0.00 | 0.00 | 0.00 | 36 | 1025.4 |
| 20260509204945 | 67 | 230 | 1.7 | 7.0 | 0.00 | 0.00 | 0.00 | 36 | 1025.5 |
| 20260509203841 | 66 | 23 | 1.7 | 5.2 | 0.00 | 0.00 | 0.00 | 36 | 1025.8 |
| 20260509202840 | 66 | 267 | 1.7 | 6.1 | 0.00 | 0.00 | 0.00 | 36 | 1025.8 |
| 20260509201839 | 66 | 250 | 0.9 | 6.1 | 0.00 | 0.00 | 0.00 | 38 | 1025.9 |
| 20260509200837 | 66 | 288 | 3.5 | 6.1 | 0.00 | 0.00 | 0.00 | 41 | 1025.9 |
| 20260509195837 | 66 | 284 | 1.7 | 7.8 | 0.00 | 0.00 | 0.00 | 42 | 1025.9 |
| 20260509194836 | 65 | 300 | 2.6 | 7.0 | 0.00 | 0.00 | 0.00 | 39 | 1026.1 |
| 20260509193835 | 66 | 305 | 2.6 | 7.0 | 0.00 | 0.00 | 0.00 | 38 | 1026.2 |
| 20260509192834 | 65 | 288 | 0.9 | 6.1 | 0.00 | 0.00 | 0.00 | 38 | 1026.1 |
| 20260509191833 | 65 | 16 | 0.9 | 6.1 | 0.00 | 0.00 | 0.00 | 40 | 1025.9 |
| 20260509190801 | 65 | 309 | 1.7 | 6.1 | 0.00 | 0.00 | 0.00 | 43 | 1026.2 |
| 20260509185800 | 65 | 327 | 0.9 | 7.0 | 0.00 | 0.00 | 0.00 | 40 | 1026.1 |
| 20260509184758 | 65 | 279 | 2.6 | 7.0 | 0.00 | 0.00 | 0.00 | 43 | 1026.1 |
| 20260509183757 | 65 | 19 | 0.9 | 7.0 | 0.00 | 0.00 | 0.00 | 40 | 1026.0 |
| 20260509182725 | 64 | 297 | 1.7 | 7.8 | 0.00 | 0.00 | 0.00 | 43 | 1025.8 |
| 20260509181653 | 64 | 285 | 2.6 | 7.8 | 0.00 | 0.00 | 0.00 | 43 | 1025.7 |
| 20260509180652 | 64 | 303 | 0.9 | 7.8 | 0.00 | 0.00 | 0.00 | 42 | 1025.6 |
| 20260509175651 | 63 | 283 | 2.6 | 6.1 | 0.00 | 0.00 | 0.00 | 47 | 1025.5 |
| 20260509174618 | 63 | 278 | 1.7 | 7.0 | 0.00 | 0.00 | 0.00 | 44 | 1025.4 |
| 20260509173617 | 62 | 14 | 1.7 | 8.7 | 0.00 | 0.00 | 0.00 | 43 | 1025.4 |
| 20260509172615 | 61 | 281 | 1.7 | 8.7 | 0.00 | 0.00 | 0.00 | 46 | 1025.4 |
| 20260509171614 | 61 | 291 | 0.9 | 7.8 | 0.00 | 0.00 | 0.00 | 47 | 1025.4 |
| 20260509170614 | 60 | 77 | 1.7 | 3.5 | 0.00 | 0.00 | 0.00 | 48 | 1025.3 |
| 20260509165613 | 59 | 275 | 1.7 | 2.6 | 0.00 | 0.00 | 0.00 | 50 | 1025.2 |
| 20260509164612 | 59 | 353 | 1.7 | 4.3 | 0.00 | 0.00 | 0.00 | 50 | 1025.3 |
| 20260509163611 | 59 | 296 | 1.7 | 5.2 | 0.00 | 0.00 | 0.00 | 52 | 1025.3 |
| 20260509162610 | 58 | 175 | 0.9 | 5.2 | 0.00 | 0.00 | 0.00 | 51 | 1025.2 |
| 20260509161608 | 57 | 303 | 1.7 | 2.6 | 0.00 | 0.00 | 0.00 | 55 | 1025.1 |
| 20260509160536 | 56 | 32 | 0.9 | 2.6 | 0.00 | 0.00 | 0.00 | 55 | 1025.1 |
| 20260509155504 | 56 | 76 | 0.9 | 2.6 | 0.00 | 0.00 | 0.00 | 54 | 1025.1 |
| 20260509154503 | 56 | 58 | 0.9 | 3.5 | 0.00 | 0.00 | 0.00 | 55 | 1025.2 |
| 20260509153501 | 56 | 27 | 0.9 | 2.6 | 0.00 | 0.00 | 0.00 | 54 | 1025.4 |
| 20260509152358 | 56 | 51 | 0.9 | 2.6 | 0.00 | 0.00 | 0.00 | 54 | 1025.5 |
| 20260509151357 | 55 | 23 | 1.7 | 2.6 | 0.00 | 0.00 | 0.00 | 54 | 1025.6 |
| 20260509150356 | 55 | 73 | 0.9 | 3.5 | 0.00 | 0.00 | 0.00 | 54 | 1025.7 |
| 20260509145355 | 54 | 57 | 0.9 | 3.5 | 0.00 | 0.00 | 0.00 | 54 | 1025.8 |
| 20260509144354 | 54 | 108 | 0.9 | 4.3 | 0.00 | 0.00 | 0.00 | 56 | 1025.8 |
| 20260509143353 | 52 | 77 | 1.7 | 5.2 | 0.00 | 0.00 | 0.00 | 57 | 1025.7 |
| 20260509142352 | 52 | 72 | 1.7 | 3.5 | 0.00 | 0.00 | 0.00 | 57 | 1025.3 |
| 20260509141351 | 51 | 66 | 0.9 | 3.5 | 0.00 | 0.00 | 0.00 | 60 | 1025.5 |
| 20260509140350 | 49 | 109 | 1.7 | 3.5 | 0.00 | 0.00 | 0.00 | 63 | 1025.1 |
| 20260509135318 | 48 | 76 | 0.9 | 4.3 | 0.00 | 0.00 | 0.00 | 64 | 1025.1 |
| 20260509134316 | 48 | 140 | 0.9 | 4.3 | 0.00 | 0.00 | 0.00 | 65 | 1025.1 |
| 20260509133316 | 48 | 104 | 0.9 | 4.3 | 0.00 | 0.00 | 0.00 | 64 | 1025.2 |
| 20260509132314 | 49 | 98 | 0.9 | 5.2 | 0.00 | 0.00 | 0.00 | 63 | 1025.3 |
| 20260509131242 | 49 | 70 | 1.7 | 7.0 | 0.00 | 0.00 | 0.00 | 60 | 1025.4 |
| 20260509130240 | 49 | 248 | 2.6 | 7.0 | 0.00 | 0.00 | 0.00 | 61 | 1025.4 |
| 20260509125239 | 49 | 244 | 2.6 | 6.1 | 0.00 | 0.00 | 0.00 | 59 | 1025.3 |
| 20260509124238 | 49 | 223 | 1.7 | 8.7 | 0.00 | 0.00 | 0.00 | 58 | 1025.2 |
| 20260509123237 | 49 | 222 | 2.6 | 8.7 | 0.00 | 0.00 | 0.00 | 58 | 1025.0 |
| 20260509122236 | 49 | 225 | 1.7 | 6.1 | 0.00 | 0.00 | 0.00 | 58 | 1024.8 |
| 20260509121235 | 49 | 229 | 1.7 | 5.2 | 0.00 | 0.00 | 0.00 | 58 | 1024.8 |
| 20260509120234 | 49 | 216 | 0.9 | 6.1 | 0.00 | 0.00 | 0.00 | 59 | 1024.8 |
| 20260509115233 | 49 | 226 | 1.7 | 6.1 | 0.00 | 0.00 | 0.00 | 58 | 1024.5 |
| 20260509114232 | 49 | 223 | 1.7 | 5.2 | 0.00 | 0.00 | 0.00 | 57 | 1024.6 |
| 20260509113231 | 49 | 220 | 1.7 | 5.2 | 0.00 | 0.00 | 0.00 | 57 | 1024.7 |
| 20260509112158 | 50 | 227 | 1.7 | 6.1 | 0.00 | 0.00 | 0.00 | 56 | 1024.8 |
| 20260509111157 | 50 | 235 | 1.7 | 6.1 | 0.00 | 0.00 | 0.00 | 55 | 1024.8 |
| 20260509110054 | 50 | 232 | 1.7 | 6.1 | 0.00 | 0.00 | 0.00 | 55 | 1024.8 |
| 20260509105052 | 51 | 243 | 1.7 | 6.1 | 0.00 | 0.00 | 0.00 | 54 | 1024.8 |
| 20260509104051 | 51 | 227 | 3.5 | 7.0 | 0.00 | 0.00 | 0.00 | 53 | 1025.0 |
| 20260509103050 | 51 | 228 | 1.7 | 7.0 | 0.00 | 0.00 | 0.00 | 53 | 1025.0 |
| 20260509102049 | 51 | 244 | 2.6 | 7.8 | 0.00 | 0.00 | 0.00 | 54 | 1025.0 |
| 20260509101049 | 50 | 231 | 2.6 | 5.2 | 0.00 | 0.00 | 0.00 | 55 | 1024.9 |
| 20260509100048 | 50 | 221 | 2.6 | 4.3 | 0.00 | 0.00 | 0.00 | 55 | 1024.5 |
| 20260509095015 | 51 | 223 | 1.7 | 5.2 | 0.00 | 0.00 | 0.00 | 54 | 1024.6 |
| 20260509094013 | 52 | 227 | 2.6 | 7.0 | 0.00 | 0.00 | 0.00 | 53 | 1024.7 |
| 20260509092940 | 52 | 226 | 1.7 | 7.8 | 0.00 | 0.00 | 0.00 | 52 | 1024.3 |
| 20260509091939 | 52 | 223 | 2.6 | 7.0 | 0.00 | 0.00 | 0.00 | 51 | 1024.2 |
| 20260509090938 | 52 | 224 | 2.6 | 7.0 | 0.00 | 0.00 | 0.00 | 51 | 1024.3 |
| 20260509085938 | 52 | 227 | 2.6 | 7.0 | 0.00 | 0.00 | 0.00 | 50 | 1024.4 |
| 20260509084937 | 53 | 220 | 1.7 | 6.1 | 0.00 | 0.00 | 0.00 | 49 | 1024.4 |
| 20260509083905 | 53 | 218 | 1.7 | 7.8 | 0.00 | 0.00 | 0.00 | 48 | 1024.5 |
| 20260509082904 | 54 | 230 | 1.7 | 9.6 | 0.00 | 0.00 | 0.00 | 47 | 1024.5 |
| 20260509081903 | 54 | 237 | 2.6 | 9.6 | 0.00 | 0.00 | 0.00 | 47 | 1024.5 |
| 20260509080901 | 54 | 224 | 1.7 | 7.8 | 0.00 | 0.00 | 0.00 | 46 | 1024.6 |
| 20260509075727 | 54 | 230 | 1.7 | 8.7 | 0.00 | 0.00 | 0.00 | 46 | 1024.2 |
| 20260509074725 | 54 | 237 | 1.7 | 7.8 | 0.00 | 0.00 | 0.00 | 45 | 1024.1 |
| 20260509073725 | 54 | 237 | 2.6 | 8.7 | 0.00 | 0.00 | 0.00 | 45 | 1024.1 |
| 20260509072652 | 53 | 233 | 1.7 | 7.0 | 0.00 | 0.00 | 0.00 | 46 | 1023.8 |
| 20260509071548 | 53 | 219 | 2.6 | 7.0 | 0.00 | 0.00 | 0.00 | 46 | 1023.6 |
| 20260509070547 | 52 | 231 | 1.7 | 7.0 | 0.00 | 0.00 | 0.00 | 46 | 1023.5 |
| 20260509065546 | 51 | 222 | 1.7 | 7.0 | 0.00 | 0.00 | 0.00 | 47 | 1023.3 |
| 20260509064545 | 51 | 228 | 2.6 | 7.0 | 0.00 | 0.00 | 0.00 | 48 | 1022.9 |
| 20260509063543 | 50 | 221 | 1.7 | 6.1 | 0.00 | 0.00 | 0.00 | 50 | 1022.8 |
| 20260509062542 | 50 | 220 | 1.7 | 4.3 | 0.00 | 0.00 | 0.00 | 52 | 1022.8 |
| 20260509061541 | 49 | 222 | 0.9 | 5.2 | 0.00 | 0.00 | 0.00 | 56 | 1022.7 |
| 20260509060509 | 48 | 220 | 1.7 | 5.2 | 0.00 | 0.00 | 0.00 | 58 | 1022.5 |
| 20260509055508 | 47 | 217 | 0.9 | 3.5 | 0.00 | 0.00 | 0.00 | 62 | 1022.4 |
| 20260509054506 | 48 | 166 | 0.9 | 2.6 | 0.00 | 0.00 | 0.00 | 66 | 1022.4 |
| 20260509053505 | 49 | 166 | 0.9 | 2.6 | 0.00 | 0.00 | 0.00 | 64 | 1022.6 |
| 20260509052504 | 49 | 165 | 0.0 | 0.9 | 0.00 | 0.00 | 0.00 | 63 | 1022.9 |
| 20260509051503 | 49 | 166 | 0.9 | 0.9 | 0.00 | 0.00 | 0.00 | 63 | 1022.5 |
| 20260509050501 | 50 | 165 | 0.0 | 1.7 | 0.00 | 0.00 | 0.00 | 63 | 1022.5 |
| 20260509045500 | 50 | 165 | 0.9 | 2.6 | 0.00 | 0.00 | 0.00 | 62 | 1022.5 |
| 20260509044459 | 50 | 165 | 0.9 | 2.6 | 0.00 | 0.00 | 0.00 | 62 | 1022.4 |
| 20260509043457 | 51 | 166 | 0.9 | 4.3 | 0.00 | 0.00 | 0.00 | 62 | 1022.2 |
| 20260509042456 | 51 | 163 | 0.0 | 0.0 | 0.00 | 0.00 | 0.00 | 63 | 1022.2 |
| 20260509041455 | 51 | 136 | 0.0 | 0.0 | 0.00 | 0.00 | 0.00 | 63 | 1022.1 |
| 20260509040454 | 52 | 136 | 0.0 | 0.0 | 0.00 | 0.00 | 0.00 | 62 | 1022.1 |
| 20260509035453 | 53 | 136 | 0.0 | 1.7 | 0.00 | 0.00 | 0.00 | 61 | 1021.8 |
| 20260509034452 | 54 | 136 | 0.9 | 1.7 | 0.00 | 0.00 | 0.00 | 61 | 1021.8 |
| 20260509033419 | 55 | 135 | 0.9 | 1.7 | 0.00 | 0.00 | 0.00 | 59 | 1021.5 |
| 20260509032418 | 56 | 136 | 0.9 | 2.6 | 0.00 | 0.00 | 0.00 | 56 | 1021.2 |
| 20260509031417 | 57 | 136 | 0.9 | 2.6 | 0.00 | 0.00 | 0.00 | 55 | 1021.3 |